[[{"header":{"parameterUnit":"m.s-1","parameterCategory":1,"la1":30.2991,"la2":30.254,"lo1":-89.0895,"lo2":-89.0444,"dy":0.0017,"dx":0.0017,"nx":28,"ny":28,"refTime":"2025-04-25T09:00:00:Z","depth":0,"parameterNumber":2,"parameterNumberName":"U-component_of_WINDS"},"data":[0,0,0,0,0,0,0,0,0,0,0,0,0,0,0,0,0,0,0,0,0,0,0,0,0,0,0,0,0,0,0,0,0,0,0,0,0,0,0,0,0,0,0,0,0,0,0,0,0,0,0,0,0,0,0,0,0,0,0.5066,0.5068,0,0.5242,0.5244,0.5246,0.5297,0.5296,0.5295,0.5294,0.5479,0.5485,0.549,0,0,0,0,0,0,0,0,0,0,0,0,0,0.4777,0.4782,0.5066,0.5068,0.507,0.5241,0.5244,0.5246,0.5297,0.5296,0.5295,0.5293,0.5477,0.5484,0.5491,0,0,0,0,0,0,0,0,0,0,0,0,0,0.4923,0.4784,0.5065,0.5116,0.5122,0.5241,0.5244,0.5247,0.5297,0.5296,0.5294,0.5293,0.5475,0.5483,0.5492,0.5575,0,0,0.5519,0.5522,0,0,0,0,0,0,0,0,0.4915,0.4934,0.5106,0.5113,0.512,0.5246,0.521,0.5357,0.5297,0.5231,0.5294,0.5292,0.5403,0.5417,0.5454,0.5583,0.5591,0.5519,0.5525,0.5529,0.5531,0,0,0,0,0,0,0,0.4905,0.4926,0.5136,0.5109,0.5117,0.5131,0.515,0.5238,0.5323,0.5237,0.5241,0.526,0.5406,0.5445,0.5459,0.5594,0.5519,0.5527,0.5532,0.5536,0.58,0.5802,0,0,0,0,0,0,0.4885,0.4918,0.513,0.5141,0.5011,0.5137,0.5159,0.5207,0.5322,0.5338,0.5262,0.5262,0.5431,0.5448,0.5465,0.557,0.5528,0.5537,0.5542,0.5798,0.5801,0.5802,0,0,0,0,0,0,0.4879,0.4904,0.5123,0.503,0.5059,0.5144,0.5197,0.5211,0.525,0.5341,0.5357,0.5285,0.5431,0.5453,0.5547,0.5577,0.5541,0.5549,0.5796,0.5799,0.5802,0.5779,0,0,0,0,0,0,0.487,0.4901,0.4932,0.5031,0.5064,0.52,0.5199,0.5216,0.5264,0.5267,0.5368,0.5383,0.5431,0.5533,0.5555,0.5588,0.5555,0.5794,0.5798,0.5801,0.5777,0.578,0.5783,0,0,0,0,0,0.486,0.492,0.4934,0.4959,0.5105,0.5202,0.5221,0.5274,0.5266,0.5299,0.5358,0.538,0.5569,0.5542,0.5568,0.5604,0.5792,0.5797,0.58,0.5776,0.578,0.5783,0,0,0,0,0,0,0.4825,0.4934,0.495,0.5044,0.5113,0.521,0.5253,0.5276,0.535,0.535,0.5414,0.5436,0.5525,0.5574,0.5542,0.569,0.5682,0.5691,0.5655,0.5659,0.5662,0.5649,0.5563,0,0,0,0,0,0.4828,0.4896,0.4988,0.5062,0.5096,0.5168,0.5212,0.5247,0.5322,0.5352,0.5417,0.549,0.5566,0.5615,0.569,0.5784,0.5807,0.5821,0.5824,0.5826,0.5834,0.5887,0.5894,0.5816,0.5816,0.5816,0,0,0.4836,0.4904,0.4943,0.5057,0.5114,0.5185,0.5193,0.5267,0.532,0.5364,0.5456,0.5506,0.5592,0.5686,0.573,0.5729,0.586,0.5831,0.5832,0.5839,0.5892,0.5899,0.5906,0.5818,0.5818,0.5817,0,0,0.4886,0.4943,0.5011,0.5068,0.5154,0.5202,0.5218,0.5311,0.5346,0.5439,0.5473,0.5537,0.5667,0.5727,0.5774,0.5845,0.5868,0.5867,0.5883,0.5934,0.594,0.5946,0.5972,0.598,0.5874,0.5874,0.5874,0,0.4885,0.499,0.5043,0.5116,0.5165,0.5205,0.5275,0.5328,0.5435,0.5469,0.5465,0.5628,0.5689,0.5797,0.5814,0.5851,0.5872,0.5857,0.5935,0.5941,0.5947,0.5973,0.5982,0.5874,0.5874,0.5874,0.5874,0,0.4985,0.5058,0.5103,0.5203,0.5257,0.5328,0.5392,0.5441,0.547,0.5518,0.5613,0.5686,0.5777,0.5805,0.5836,0.5918,0.5914,0.5922,0.5916,0.5953,0.5978,0.5988,0.5873,0.5873,0.5873,0.5874,0,0,0.5019,0.5146,0.5162,0.5208,0.5305,0.5364,0.5436,0.5523,0.5563,0.5636,0.5699,0.5807,0.5814,0.5867,0.5905,0.5949,0.6001,0.5952,0.5955,0.5959,0.6096,0.609,0.61,0.6016,0.6018,0.602,0.6089,0,0.5082,0.5211,0.526,0.5367,0.5435,0.5474,0.5537,0.5604,0.5651,0.5717,0.5769,0.5845,0.5848,0.5881,0.5927,0.5984,0.6029,0.598,0.6077,0.6079,0.6054,0.6113,0.6108,0.617,0.6099,0.6101,0.6102,0,0.5172,0.5243,0.5356,0.5444,0.5475,0.553,0.5614,0.5675,0.5753,0.5784,0.5842,0.5876,0.5955,0.5942,0.6051,0.6017,0.6059,0.6093,0.6097,0.6109,0.6093,0.6127,0.6191,0.62,0.6118,0.6116,0.6115,0,0.5186,0.531,0.5393,0.5431,0.5536,0.5575,0.5621,0.5696,0.5745,0.5818,0.585,0.5932,0.5977,0.604,0.6095,0.6081,0.62,0.6192,0.6229,0.6227,0.6253,0.625,0.6324,0.6279,0.6278,0.6278,0.6278,0,0.5251,0.5318,0.5401,0.5452,0.5529,0.5585,0.566,0.5709,0.5775,0.5838,0.5876,0.5934,0.6004,0.6071,0.6115,0.6199,0.6219,0.6247,0.6258,0.6244,0.624,0.6273,0.627,0.6281,0.628,0.628,0.6279,0,0.528,0.5338,0.5431,0.5522,0.5547,0.5599,0.5678,0.573,0.5777,0.5856,0.5877,0.5953,0.6034,0.6095,0.6201,0.623,0.6319,0.6331,0.6293,0.6298,0.6332,0.6328,0.643,0.6446,0.6388,0.6389,0.6389,0,0.5318,0.537,0.5466,0.551,0.5555,0.5625,0.5674,0.5732,0.5782,0.5873,0.5914,0.5997,0.6066,0.6194,0.6259,0.634,0.6354,0.6384,0.6366,0.635,0.6355,0.6351,0.6357,0.6386,0.6387,0.6387,0.6387,0,0.5379,0.5404,0.5473,0.5552,0.5609,0.5675,0.5741,0.5775,0.5844,0.5898,0.598,0.6034,0.614,0.6223,0.631,0.6358,0.6385,0.6392,0.6405,0.6391,0.6367,0.6381,0.63,0.639,0.6389,0.6389,0.6389,0.6389,0.5414,0.5462,0.5537,0.5613,0.5668,0.5728,0.5781,0.5835,0.5903,0.5993,0.6023,0.6108,0.6184,0.6303,0.6352,0.642,0.6421,0.6439,0.6444,0.6448,0.6447,0.6355,0.6436,0.6436,0.6436,0.6436,0.6436,0,0.5478,0.5527,0.5596,0.5686,0.5745,0.5763,0.5836,0.5885,0.5959,0.6026,0.6093,0.6187,0.6267,0.6338,0.6421,0.6461,0.6476,0.6481,0.6479,0.649,0.6442,0.6422,0.6468,0.6468,0.6468,0.6468,0.6468,0.6468,0.5517,0.56,0.5634,0.5745,0.5794,0.5876,0.5917,0.5973,0.6027,0.613,0.6196,0.624,0.631,0.6398,0.6472,0.6491,0.652,0.6522,0.6544,0.6498,0.6494,0.649,0.6472,0.6528,0.6528,0.6588,0.6588,0.6588]},{"header":{"parameterUnit":"m.s-1","parameterCategory":1,"la1":30.2991,"la2":30.254,"lo1":-89.0895,"lo2":-89.0444,"dy":0.0017,"dx":0.0017,"nx":28,"ny":28,"refTime":"2025-04-25T09:00:00:Z","depth":0,"parameterNumber":3,"parameterNumberName":"V-component_of_WINDS"},"data":[0,0,0,0,0,0,0,0,0,0,0,0,0,0,0,0,0,0,0,0,0,0,0,0,0,0,0,0,0,0,0,0,0,0,0,0,0,0,0,0,0,0,0,0,0,0,0,0,0,0,0,0,0,0,0,0,0,0,2.1267,2.1267,0,2.1301,2.1301,2.1302,2.1345,2.1346,2.1347,2.1347,2.1378,2.1378,2.1378,0,0,0,0,0,0,0,0,0,0,0,0,0,2.1234,2.1234,2.1267,2.1267,2.1268,2.1301,2.1301,2.1302,2.1345,2.1346,2.1347,2.1348,2.1378,2.1378,2.1378,0,0,0,0,0,0,0,0,0,0,0,0,0,2.1256,2.1234,2.1267,2.1293,2.1296,2.1301,2.1301,2.1302,2.1345,2.1346,2.1347,2.1348,2.1378,2.1378,2.1378,2.1359,0,0,2.1379,2.1379,0,0,0,0,0,0,0,0,2.1255,2.1257,2.1289,2.1292,2.1295,2.132,2.1301,2.1321,2.1345,2.1326,2.1347,2.1349,2.1358,2.136,2.1364,2.136,2.1361,2.1379,2.1379,2.1379,2.1379,0,0,0,0,0,0,0,2.1253,2.1256,2.128,2.1289,2.1293,2.1302,2.1306,2.1305,2.1335,2.1328,2.1331,2.1335,2.1359,2.1363,2.1365,2.1362,2.1379,2.1379,2.1379,2.138,2.134,2.1339,0,0,0,0,0,0,2.1248,2.1254,2.1279,2.1281,2.1277,2.1302,2.1306,2.1311,2.1336,2.134,2.1334,2.1337,2.1362,2.1364,2.1366,2.1342,2.1379,2.138,2.138,2.1341,2.134,2.1339,0,0,0,0,0,0,2.1247,2.125,2.1278,2.1269,2.1273,2.1301,2.1305,2.1311,2.1315,2.134,2.1345,2.1333,2.1363,2.1365,2.136,2.1344,2.138,2.138,2.1343,2.1341,2.1339,2.1295,0,0,0,0,0,0,2.1246,2.1249,2.1244,2.1268,2.1273,2.1273,2.1305,2.1311,2.1316,2.132,2.134,2.1345,2.1364,2.1359,2.136,2.1345,2.138,2.1344,2.1342,2.134,2.1298,2.1292,2.1287,0,0,0,0,0,2.1245,2.123,2.1243,2.1246,2.1267,2.1272,2.1274,2.1298,2.1314,2.1307,2.1323,2.1344,2.1346,2.1358,2.1359,2.1344,2.1345,2.1343,2.134,2.1301,2.1293,2.1287,0,0,0,0,0,0,2.1202,2.1234,2.1249,2.1242,2.1254,2.1279,2.1272,2.129,2.1297,2.13,2.1329,2.1333,2.1323,2.1333,2.1346,2.1324,2.1348,2.1346,2.1318,2.1311,2.1306,2.1302,2.138,0,0,0,0,0,2.1191,2.1194,2.1221,2.1212,2.1218,2.1243,2.1246,2.1264,2.1277,2.1282,2.1297,2.1308,2.131,2.1312,2.1316,2.13,2.1303,2.129,2.1284,2.128,2.1276,2.1266,2.1259,2.133,2.133,2.133,0,0,2.117,2.1188,2.1188,2.1204,2.1215,2.1215,2.1247,2.1247,2.1246,2.1281,2.1276,2.1288,2.1301,2.129,2.1285,2.1298,2.1258,2.1276,2.1272,2.1272,2.1262,2.1255,2.1249,2.1328,2.1328,2.1329,0,0,2.1131,2.1146,2.1138,2.1149,2.1166,2.1183,2.1181,2.1203,2.1212,2.1208,2.1233,2.1232,2.1237,2.1245,2.125,2.1211,2.1229,2.1211,2.1181,2.117,2.1165,2.116,2.1143,2.1137,2.1208,2.1208,2.1208,0,2.1102,2.1105,2.1132,2.1129,2.1134,2.1167,2.1158,2.1166,2.1183,2.1185,2.1199,2.1204,2.1216,2.1205,2.1195,2.1199,2.1195,2.1208,2.1164,2.1159,2.1155,2.1139,2.1133,2.1206,2.1206,2.1206,2.1206,0,2.1066,2.1068,2.1059,2.1075,2.108,2.1074,2.1098,2.1099,2.1115,2.113,2.1123,2.1138,2.1144,2.1143,2.1159,2.1134,2.1141,2.1159,2.1183,2.1145,2.1131,2.1125,2.1202,2.1203,2.1204,2.1204,0,0,2.1001,2.1031,2.1028,2.1034,2.1054,2.1054,2.1049,2.1056,2.1055,2.1065,2.1059,2.1061,2.1077,2.1082,2.1099,2.109,2.1055,2.1109,2.111,2.1097,2.1024,2.1008,2.1001,2.1068,2.1067,2.1066,2.1022,0,2.0964,2.0958,2.0981,2.0967,2.0967,2.0997,2.0991,2.1002,2.1015,2.1015,2.1029,2.1029,2.1052,2.1055,2.1047,2.1061,2.104,2.1065,2.106,2.1059,2.1054,2.0995,2.0979,2.0937,2.1017,2.1016,2.1015,0,2.092,2.0928,2.0914,2.0932,2.0933,2.0928,2.0935,2.0936,2.0947,2.0957,2.0961,2.0981,2.0974,2.0999,2.0988,2.1004,2.1003,2.1009,2.1008,2.1007,2.1034,2.0989,2.0924,2.0917,2.1007,2.1008,2.1009,0,2.087,2.0877,2.0869,2.0874,2.0896,2.0892,2.09,2.0913,2.0915,2.092,2.0921,2.0925,2.0927,2.0929,2.0948,2.0965,2.0934,2.0961,2.0939,2.0939,2.093,2.093,2.0862,2.0934,2.0934,2.0934,2.0934,0,2.0825,2.0815,2.0847,2.0842,2.083,2.0857,2.0844,2.0855,2.0866,2.0862,2.0888,2.0883,2.091,2.0907,2.0922,2.0909,2.091,2.0916,2.092,2.0913,2.0911,2.0911,2.0914,2.0932,2.0933,2.0933,2.0933,0,2.0767,2.0789,2.0782,2.0803,2.0808,2.0798,2.0815,2.081,2.0824,2.0819,2.0819,2.084,2.0838,2.0858,2.086,2.087,2.0849,2.0859,2.0845,2.0847,2.0824,2.0825,2.0751,2.0741,2.0822,2.0821,2.082,0,2.0736,2.0729,2.0749,2.0748,2.0756,2.0755,2.0757,2.0781,2.0782,2.0793,2.0785,2.0786,2.0787,2.0782,2.0797,2.0797,2.0806,2.078,2.0806,2.0798,2.0802,2.0802,2.08,2.0774,2.0773,2.0772,2.0771,0,2.0677,2.0688,2.069,2.0695,2.0696,2.0701,2.0708,2.0706,2.0732,2.0731,2.0729,2.073,2.0732,2.073,2.0734,2.0741,2.0759,2.0763,2.0758,2.0749,2.074,2.0742,2.0828,2.0764,2.0765,2.0766,2.0766,2.0766,2.063,2.0624,2.0636,2.0637,2.0644,2.0649,2.0645,2.0658,2.0658,2.0661,2.0676,2.0671,2.068,2.0686,2.0691,2.0686,2.0699,2.0692,2.0689,2.0686,2.0681,2.0743,2.0687,2.0688,2.0688,2.0688,2.0688,0,2.057,2.0579,2.058,2.0588,2.0588,2.0607,2.0614,2.0612,2.0608,2.0615,2.0616,2.0613,2.0611,2.0625,2.0625,2.0618,2.0626,2.0617,2.0617,2.0617,2.0672,2.0675,2.061,2.061,2.061,2.061,2.061,2.061,2.0539,2.0528,2.054,2.0532,2.0542,2.0538,2.054,2.0543,2.0549,2.0545,2.0544,2.0553,2.0563,2.0563,2.0561,2.0565,2.0563,2.055,2.0556,2.0606,2.0614,2.0621,2.0624,2.055,2.055,2.0502,2.0502,2.0501]}]]